Ypsilanti, MI

12:07 PM EDT on July 24, 2017 (GMT -0400)
Willow Run

Weather History for KYIP - October, 2012

Change the Weather History Date:

Wednesday, October 10, 2012

  Actual Average Record
Temperature  
Mean Temperature 46 °F -  
Max Temperature 55 °F 63 °F 86 °F (1949)
Min Temperature 37 °F 43 °F 30 °F (1993)
Degree Days  
Heating Degree Days 19    
Moisture  
Dew Point 36 °F    
Average Humidity 66    
Maximum Humidity 82    
Minimum Humidity 44    
Precipitation  
Precipitation 0.11 in - - ()
Sea Level Pressure  
Sea Level Pressure 29.94 in    
Wind  
Wind Speed 13 mph (West)    
Max Wind Speed 20 mph    
Max Gust Speed 34 mph    
Visibility 10 miles    
Events Rain    
Averages and records for this station are not official NWS values.
T = Trace of Precipitation, MM = Missing Value Source: NWS Daily Summary

Daily Weather History Graph

Daily Weather History Graph

Search for Another Location

Airport or City:

Trip Planner

Search our weather history database for the weather conditions in past years. The results will help you decide how hot, cold, wet, or windy it might be!

Date:

Astronomy

Oct. 10, 2012 Rise Set
Actual Time 7:41 AM EDT 6:59 PM EDT
Civil Twilight 7:13 AM EDT 7:27 PM EDT
Nautical Twilight 6:41 AM EDT 8:00 PM EDT
Astronomical Twilight 6:08 AM EDT 8:32 PM EDT
Moon 2:11 AM EDT (10/10) 4:06 PM EDT (10/10)
Length of Visible Light 12h 14m
Length of Day
11h 17m
Waning Crescent, 27% of the Moon is Illuminated
Oct 10
Waning Crescent
Oct 15
New
Oct 21
First Quarter
Oct 29
Full
Nov 6
Last Quarter

Hourly Weather History & Observations

Time (EDT) Temp. Windchill Dew Point Humidity Pressure Visibility Wind Dir Wind Speed Gust Speed Precip Events Conditions
12:53 AM 55.0 °F - 37.9 °F 53% 29.83 in 10.0 mi SSW 17.3 mph 25.3 mph N/A   Clear
1:53 AM 55.0 °F - 39.0 °F 55% 29.81 in 10.0 mi SSW 13.8 mph 21.9 mph N/A   Overcast
2:53 AM 54.0 °F - 39.0 °F 57% 29.81 in 10.0 mi SSW 16.1 mph - N/A   Overcast
3:53 AM 51.1 °F - 39.0 °F 63% 29.82 in 10.0 mi WNW 16.1 mph - N/A   Overcast
4:00 AM 50.0 °F - 39.2 °F 66% 29.83 in 10.0 mi WNW 16.1 mph - 0.00 in Rain Light Rain
4:09 AM 48.2 °F - 39.2 °F 71% 29.83 in 10.0 mi WNW 15.0 mph 21.9 mph 0.00 in Rain Light Rain
4:21 AM 48.2 °F - 41.0 °F 76% 29.84 in 8.0 mi NW 12.7 mph - 0.02 in Rain Light Rain
4:53 AM 46.9 °F - 41.0 °F 80% 29.83 in 7.0 mi NW 9.2 mph - 0.05 in Rain Light Rain
5:53 AM 45.0 °F 40.1 °F 39.9 °F 82% 29.84 in 10.0 mi WNW 9.2 mph - 0.05 in Rain Light Rain
6:53 AM 45.0 °F 40.6 °F 39.9 °F 82% 29.87 in 10.0 mi West 8.1 mph - 0.00 in   Overcast
7:22 AM 44.6 °F 40.7 °F 39.2 °F 81% 29.87 in 10.0 mi WSW 6.9 mph - N/A   Overcast
7:50 AM 44.6 °F 40.2 °F 39.2 °F 81% 29.88 in 10.0 mi West 8.1 mph - N/A   Overcast
7:53 AM 45.0 °F 39.7 °F 39.0 °F 80% 29.88 in 10.0 mi West 10.4 mph - N/A   Overcast
8:50 AM 46.4 °F 42.9 °F 39.2 °F 76% 29.91 in 10.0 mi SW 6.9 mph - N/A   Overcast
8:53 AM 46.0 °F 41.9 °F 39.9 °F 79% 29.91 in 10.0 mi WSW 8.1 mph - N/A   Overcast
9:44 AM 46.4 °F 41.1 °F 41.0 °F 81% 29.92 in 10.0 mi WSW 11.5 mph - N/A   Overcast
9:53 AM 48.0 °F - 41.0 °F 77% 29.92 in 10.0 mi WSW 9.2 mph - N/A   Overcast
10:01 AM 46.4 °F 40.7 °F 41.0 °F 81% 29.92 in 10.0 mi West 12.7 mph 18.4 mph N/A   Overcast
10:53 AM 51.1 °F - 41.0 °F 68% 29.94 in 10.0 mi WSW 12.7 mph - N/A   Mostly Cloudy
11:22 AM 50.0 °F - 37.4 °F 62% 29.94 in 10.0 mi West 12.7 mph - N/A   Overcast
11:53 AM 52.0 °F - 39.0 °F 61% 29.94 in 10.0 mi WNW 16.1 mph 20.7 mph N/A   Overcast
12:53 PM 52.0 °F - 34.0 °F 50% 29.96 in 10.0 mi West 19.6 mph 24.2 mph N/A   Overcast
1:53 PM 52.0 °F - 39.0 °F 61% 29.96 in 10.0 mi WSW 15.0 mph 23.0 mph 0.01 in   Overcast
2:53 PM 51.1 °F - 36.0 °F 56% 29.96 in 10.0 mi West 18.4 mph - 0.00 in   Overcast
3:53 PM 51.1 °F - 34.0 °F 52% 29.99 in 10.0 mi West 18.4 mph 23.0 mph 0.00 in   Overcast
4:53 PM 48.9 °F - 28.0 °F 44% 30.02 in 10.0 mi West 18.4 mph 34.5 mph N/A   Overcast
5:53 PM 48.0 °F - 28.0 °F 46% 30.04 in 10.0 mi West 18.4 mph 23.0 mph N/A   Overcast
6:53 PM 46.9 °F - 27.0 °F 46% 30.07 in 10.0 mi West 15.0 mph 25.3 mph N/A   Overcast
7:53 PM 46.0 °F 40.6 °F 27.0 °F 47% 30.11 in 10.0 mi West 11.5 mph - N/A   Overcast
8:53 PM 43.0 °F 38.8 °F 28.0 °F 56% 30.13 in 10.0 mi WSW 6.9 mph - N/A   Mostly Cloudy
9:53 PM 39.0 °F 34.8 °F 28.0 °F 65% 30.17 in 10.0 mi WSW 5.8 mph - N/A   Clear
10:53 PM 37.0 °F 32.4 °F 27.0 °F 67% 30.17 in 10.0 mi WSW 5.8 mph - N/A   Clear
11:53 PM 37.0 °F 33.3 °F 27.0 °F 67% 30.18 in 10.0 mi WSW 4.6 mph - N/A   Clear